Data supplied by UK-AIR on 19/3/2020
All Data GMT hour ending 
Status: R =Ratified P=Provisional,P*=As supplied
,,Borehamwood Meadow Park,,,,,,,,,,,,,,,,,,,,,,,
Date,time,"Nitric oxide",status,unit,"Nitrogen dioxide",status,unit,"Nitrogen oxides as nitrogen dioxide",status,unit
 
01-01-2019,01:00,0.00000,R,ugm-3,4.77481,R,ugm-3,4.77481,R,ugm-3
01-01-2019,02:00,,,,,,,,,
01-01-2019,03:00,0.07213,R,ugm-3,4.44717,R,ugm-3,4.55777,R,ugm-3
01-01-2019,04:00,0.10820,R,ugm-3,4.44613,R,ugm-3,4.61203,R,ugm-3
01-01-2019,05:00,0.18033,R,ugm-3,5.09516,R,ugm-3,5.37166,R,ugm-3
01-01-2019,06:00,0.25246,R,ugm-3,7.75178,R,ugm-3,8.13888,R,ugm-3
01-01-2019,07:00,0.21640,R,ugm-3,9.92319,R,ugm-3,10.25499,R,ugm-3
01-01-2019,08:00,0.14426,R,ugm-3,9.32842,R,ugm-3,9.54962,R,ugm-3
01-01-2019,09:00,0.28853,R,ugm-3,10.40944,R,ugm-3,10.85184,R,ugm-3
01-01-2019,10:00,0.25246,R,ugm-3,5.31012,R,ugm-3,5.69722,R,ugm-3
01-01-2019,11:00,0.39672,R,ugm-3,5.52299,R,ugm-3,6.13129,R,ugm-3
01-01-2019,12:00,0.57705,R,ugm-3,6.60297,R,ugm-3,7.48777,R,ugm-3
01-01-2019,13:00,0.75738,R,ugm-3,7.14036,R,ugm-3,8.30166,R,ugm-3
01-01-2019,14:00,0.68525,R,ugm-3,8.39040,R,ugm-3,9.44110,R,ugm-3
01-01-2019,15:00,0.79345,R,ugm-3,9.36394,R,ugm-3,10.58055,R,ugm-3
01-01-2019,16:00,0.72132,R,ugm-3,12.45880,R,ugm-3,13.56480,R,ugm-3
01-01-2019,17:00,0.14426,R,ugm-3,8.08046,R,ugm-3,8.30166,R,ugm-3
01-01-2019,18:00,0.00000,R,ugm-3,6.45685,R,ugm-3,6.45685,R,ugm-3
01-01-2019,19:00,0.07213,R,ugm-3,8.84217,R,ugm-3,8.95277,R,ugm-3
01-01-2019,20:00,0.00000,R,ugm-3,7.70481,R,ugm-3,7.70481,R,ugm-3
01-01-2019,21:00,0.03607,R,ugm-3,5.80469,R,ugm-3,5.85999,R,ugm-3
01-01-2019,22:00,0.00000,R,ugm-3,7.27073,R,ugm-3,7.27073,R,ugm-3
01-01-2019,23:00,0.03607,R,ugm-3,11.39339,R,ugm-3,11.44869,R,ugm-3
01-01-2019,24:00,0.07213,R,ugm-3,9.60180,R,ugm-3,9.71240,R,ugm-3
02-01-2019,01:00,0.00000,R,ugm-3,9.48083,R,ugm-3,9.48083,R,ugm-3
02-01-2019,02:00,,,,,,,,,
02-01-2019,03:00,0.00000,R,ugm-3,5.97075,R,ugm-3,5.97075,R,ugm-3
02-01-2019,04:00,0.10826,R,ugm-3,5.53336,R,ugm-3,5.69935,R,ugm-3
02-01-2019,05:00,0.00000,R,ugm-3,3.96241,R,ugm-3,3.96241,R,ugm-3
02-01-2019,06:00,0.03609,R,ugm-3,5.42690,R,ugm-3,5.48223,R,ugm-3
02-01-2019,07:00,0.39695,R,ugm-3,11.98421,R,ugm-3,12.59285,R,ugm-3
02-01-2019,08:00,0.28869,R,ugm-3,15.67837,R,ugm-3,16.12102,R,ugm-3
02-01-2019,09:00,0.46912,R,ugm-3,15.99879,R,ugm-3,16.71809,R,ugm-3
02-01-2019,10:00,0.82998,R,ugm-3,16.20539,R,ugm-3,17.47801,R,ugm-3
02-01-2019,11:00,0.72173,R,ugm-3,11.81190,R,ugm-3,12.91853,R,ugm-3
02-01-2019,12:00,0.86607,R,ugm-3,11.26490,R,ugm-3,12.59285,R,ugm-3
02-01-2019,13:00,0.82998,R,ugm-3,10.39748,R,ugm-3,11.67010,R,ugm-3
02-01-2019,14:00,0.64955,R,ugm-3,9.10003,R,ugm-3,10.09599,R,ugm-3
02-01-2019,15:00,0.50521,R,ugm-3,10.56978,R,ugm-3,11.34442,R,ugm-3
02-01-2019,16:00,0.25260,R,ugm-3,12.91117,R,ugm-3,13.29849,R,ugm-3
02-01-2019,17:00,0.28869,R,ugm-3,19.58649,R,ugm-3,20.02915,R,ugm-3
02-01-2019,18:00,0.54129,R,ugm-3,26.30979,R,ugm-3,27.13976,R,ugm-3
02-01-2019,19:00,0.32478,R,ugm-3,20.07396,R,ugm-3,20.57194,R,ugm-3
02-01-2019,20:00,0.46912,R,ugm-3,21.53530,R,ugm-3,22.25461,R,ugm-3
02-01-2019,21:00,0.50521,R,ugm-3,22.40272,R,ugm-3,23.17736,R,ugm-3
02-01-2019,22:00,0.32478,R,ugm-3,17.90278,R,ugm-3,18.40076,R,ugm-3
02-01-2019,23:00,0.25260,R,ugm-3,17.57920,R,ugm-3,17.96652,R,ugm-3
02-01-2019,24:00,0.21652,R,ugm-3,15.68047,R,ugm-3,16.01246,R,ugm-3
03-01-2019,01:00,0.19257,R,ugm-3,13.38829,R,ugm-3,13.68356,R,ugm-3
03-01-2019,02:00,,,,,,,,,
03-01-2019,03:00,0.28885,R,ugm-3,13.02346,R,ugm-3,13.46636,R,ugm-3
03-01-2019,04:00,0.14443,R,ugm-3,10.74712,R,ugm-3,10.96857,R,ugm-3
03-01-2019,05:00,0.14443,R,ugm-3,12.26751,R,ugm-3,12.48897,R,ugm-3
03-01-2019,06:00,0.18053,R,ugm-3,17.09914,R,ugm-3,17.37595,R,ugm-3
03-01-2019,07:00,0.36107,R,ugm-3,28.22529,R,ugm-3,28.77892,R,ugm-3
03-01-2019,08:00,0.50549,R,ugm-3,33.16233,R,ugm-3,33.93740,R,ugm-3
03-01-2019,09:00,0.86656,R,ugm-3,37.65858,R,ugm-3,38.98729,R,ugm-3
03-01-2019,10:00,1.62480,R,ugm-3,33.40088,R,ugm-3,35.89220,R,ugm-3
03-01-2019,11:00,2.55154,R,ugm-3,31.63600,R,ugm-3,35.54830,R,ugm-3
03-01-2019,12:00,1.33595,R,ugm-3,17.82532,R,ugm-3,19.87374,R,ugm-3
03-01-2019,13:00,0.57771,R,ugm-3,10.35427,R,ugm-3,11.24007,R,ugm-3
03-01-2019,14:00,0.43328,R,ugm-3,10.14132,R,ugm-3,10.80567,R,ugm-3
03-01-2019,15:00,0.50549,R,ugm-3,12.36549,R,ugm-3,13.14056,R,ugm-3
03-01-2019,16:00,0.43328,R,ugm-3,24.53078,R,ugm-3,25.19513,R,ugm-3
03-01-2019,17:00,0.32496,R,ugm-3,22.30767,R,ugm-3,22.80594,R,ugm-3
03-01-2019,18:00,0.43328,R,ugm-3,27.62587,R,ugm-3,28.29022,R,ugm-3
03-01-2019,19:00,0.50549,R,ugm-3,30.28444,R,ugm-3,31.05951,R,ugm-3
03-01-2019,20:00,0.57771,R,ugm-3,29.84791,R,ugm-3,30.73371,R,ugm-3
03-01-2019,21:00,0.50549,R,ugm-3,26.91785,R,ugm-3,27.69292,R,ugm-3
03-01-2019,22:00,1.01099,R,ugm-3,30.97545,R,ugm-3,32.52561,R,ugm-3
03-01-2019,23:00,0.57771,R,ugm-3,28.92481,R,ugm-3,29.81062,R,ugm-3
03-01-2019,24:00,0.32496,R,ugm-3,21.65607,R,ugm-3,22.15434,R,ugm-3
04-01-2019,01:00,0.52986,R,ugm-3,23.59542,R,ugm-3,24.40786,R,ugm-3
04-01-2019,02:00,,,,,,,,,
04-01-2019,03:00,0.28902,R,ugm-3,22.20836,R,ugm-3,22.65151,R,ugm-3
04-01-2019,04:00,0.32514,R,ugm-3,15.79750,R,ugm-3,16.29605,R,ugm-3
04-01-2019,05:00,0.21676,R,ugm-3,17.48465,R,ugm-3,17.81701,R,ugm-3
04-01-2019,06:00,0.32514,R,ugm-3,22.37025,R,ugm-3,22.86879,R,ugm-3
04-01-2019,07:00,0.54191,R,ugm-3,21.06012,R,ugm-3,21.89103,R,ugm-3
04-01-2019,08:00,3.57658,R,ugm-3,34.54995,R,ugm-3,40.03397,R,ugm-3
04-01-2019,09:00,23.77160,R,ugm-3,40.41376,R,ugm-3,76.86304,R,ugm-3
04-01-2019,10:00,36.34382,R,ugm-3,43.51654,R,ugm-3,99.24295,R,ugm-3
04-01-2019,11:00,23.37421,R,ugm-3,38.52436,R,ugm-3,74.36431,R,ugm-3
04-01-2019,12:00,6.71963,R,ugm-3,27.01466,R,ugm-3,37.31796,R,ugm-3
04-01-2019,13:00,4.19074,R,ugm-3,21.16894,R,ugm-3,27.59465,R,ugm-3
04-01-2019,14:00,1.91473,R,ugm-3,15.47865,R,ugm-3,18.41454,R,ugm-3
04-01-2019,15:00,1.30057,R,ugm-3,19.35364,R,ugm-3,21.34783,R,ugm-3
04-01-2019,16:00,0.97543,R,ugm-3,26.04469,R,ugm-3,27.54033,R,ugm-3
04-01-2019,17:00,2.45664,R,ugm-3,45.39296,R,ugm-3,49.15975,R,ugm-3
04-01-2019,18:00,7.62281,R,ugm-3,58.98240,R,ugm-3,70.67054,R,ugm-3
04-01-2019,19:00,9.39304,R,ugm-3,56.37673,R,ugm-3,70.77918,R,ugm-3
04-01-2019,20:00,6.39449,R,ugm-3,54.56465,R,ugm-3,64.36940,R,ugm-3
04-01-2019,21:00,5.96096,R,ugm-3,52.18745,R,ugm-3,61.32747,R,ugm-3
04-01-2019,22:00,5.74420,R,ugm-3,52.90006,R,ugm-3,61.70771,R,ugm-3
04-01-2019,23:00,4.22687,R,ugm-3,49.84891,R,ugm-3,56.33002,R,ugm-3
04-01-2019,24:00,2.09537,R,ugm-3,44.58889,R,ugm-3,47.80175,R,ugm-3
05-01-2019,01:00,1.06033,R,ugm-3,38.65861,R,ugm-3,40.28442,R,ugm-3
05-01-2019,02:00,,,,,,,,,
05-01-2019,03:00,0.68680,R,ugm-3,32.74670,R,ugm-3,33.79979,R,ugm-3
05-01-2019,04:00,0.57836,R,ugm-3,28.13102,R,ugm-3,29.01782,R,ugm-3
05-01-2019,05:00,0.57836,R,ugm-3,25.52267,R,ugm-3,26.40948,R,ugm-3
05-01-2019,06:00,0.72295,R,ugm-3,26.17042,R,ugm-3,27.27893,R,ugm-3
05-01-2019,07:00,0.90369,R,ugm-3,22.30682,R,ugm-3,23.69245,R,ugm-3
05-01-2019,08:00,0.50607,R,ugm-3,14.27636,R,ugm-3,15.05232,R,ugm-3
05-01-2019,09:00,0.50607,R,ugm-3,14.60240,R,ugm-3,15.37836,R,ugm-3
05-01-2019,10:00,0.86754,R,ugm-3,15.29798,R,ugm-3,16.62819,R,ugm-3
05-01-2019,11:00,1.01213,R,ugm-3,15.29364,R,ugm-3,16.84555,R,ugm-3
05-01-2019,12:00,1.01213,R,ugm-3,13.12002,R,ugm-3,14.67193,R,ugm-3
05-01-2019,13:00,0.72295,R,ugm-3,13.40040,R,ugm-3,14.50891,R,ugm-3
05-01-2019,14:00,0.83139,R,ugm-3,15.29907,R,ugm-3,16.57385,R,ugm-3
05-01-2019,15:00,0.90369,R,ugm-3,20.35056,R,ugm-3,21.73620,R,ugm-3
05-01-2019,16:00,0.79525,R,ugm-3,25.29880,R,ugm-3,26.51816,R,ugm-3
05-01-2019,17:00,0.75910,R,ugm-3,25.84329,R,ugm-3,27.00722,R,ugm-3
05-01-2019,18:00,1.12057,R,ugm-3,34.58126,R,ugm-3,36.29945,R,ugm-3
05-01-2019,19:00,1.69893,R,ugm-3,41.19344,R,ugm-3,43.79843,R,ugm-3
05-01-2019,20:00,1.33746,R,ugm-3,38.59595,R,ugm-3,40.64669,R,ugm-3
05-01-2019,21:00,1.55434,R,ugm-3,39.40455,R,ugm-3,41.78784,R,ugm-3
05-01-2019,22:00,0.79525,R,ugm-3,30.24379,R,ugm-3,31.46314,R,ugm-3
05-01-2019,23:00,0.83139,R,ugm-3,32.90539,R,ugm-3,34.18017,R,ugm-3
05-01-2019,24:00,0.83139,R,ugm-3,32.95973,R,ugm-3,34.23451,R,ugm-3
06-01-2019,01:00,0.57869,R,ugm-3,26.36558,R,ugm-3,27.25289,R,ugm-3
06-01-2019,02:00,,,,,,,,,
06-01-2019,03:00,0.50635,R,ugm-3,23.25109,R,ugm-3,24.02748,R,ugm-3
06-01-2019,04:00,0.36168,R,ugm-3,17.98247,R,ugm-3,18.53704,R,ugm-3
06-01-2019,05:00,0.43401,R,ugm-3,18.30644,R,ugm-3,18.97192,R,ugm-3
06-01-2019,06:00,0.54252,R,ugm-3,19.49909,R,ugm-3,20.33094,R,ugm-3
06-01-2019,07:00,1.80839,R,ugm-3,21.96134,R,ugm-3,24.73417,R,ugm-3
06-01-2019,08:00,0.90420,R,ugm-3,20.95588,R,ugm-3,22.34229,R,ugm-3
06-01-2019,09:00,1.04887,R,ugm-3,23.39773,R,ugm-3,25.00597,R,ugm-3
06-01-2019,10:00,2.74876,R,ugm-3,24.05292,R,ugm-3,28.26762,R,ugm-3
06-01-2019,11:00,1.73606,R,ugm-3,17.17978,R,ugm-3,19.84170,R,ugm-3
06-01-2019,12:00,1.84456,R,ugm-3,16.08927,R,ugm-3,18.91756,R,ugm-3
06-01-2019,13:00,4.81033,R,ugm-3,17.90204,R,ugm-3,25.27778,R,ugm-3
06-01-2019,14:00,3.21894,R,ugm-3,19.30928,R,ugm-3,24.24492,R,ugm-3
06-01-2019,15:00,1.59139,R,ugm-3,19.35859,R,ugm-3,21.79869,R,ugm-3
06-01-2019,16:00,1.55522,R,ugm-3,28.22050,R,ugm-3,30.60514,R,ugm-3
06-01-2019,17:00,1.66372,R,ugm-3,33.97946,R,ugm-3,36.53046,R,ugm-3
06-01-2019,18:00,1.19354,R,ugm-3,29.48176,R,ugm-3,31.31183,R,ugm-3
06-01-2019,19:00,0.68719,R,ugm-3,23.78922,R,ugm-3,24.84289,R,ugm-3
06-01-2019,20:00,1.77223,R,ugm-3,38.21632,R,ugm-3,40.93369,R,ugm-3
06-01-2019,21:00,1.15737,R,ugm-3,33.45119,R,ugm-3,35.22580,R,ugm-3
06-01-2019,22:00,0.90420,R,ugm-3,28.40331,R,ugm-3,29.78972,R,ugm-3
06-01-2019,23:00,1.08504,R,ugm-3,30.19174,R,ugm-3,31.85543,R,ugm-3
06-01-2019,24:00,1.01270,R,ugm-3,31.06370,R,ugm-3,32.61649,R,ugm-3
07-01-2019,01:00,0.57901,R,ugm-3,20.21207,R,ugm-3,21.09988,R,ugm-3
07-01-2019,02:00,,,,,,,,,
07-01-2019,03:00,0.36188,R,ugm-3,14.83498,R,ugm-3,15.38986,R,ugm-3
07-01-2019,04:00,0.14475,R,ugm-3,10.16484,R,ugm-3,10.38680,R,ugm-3
07-01-2019,05:00,0.14475,R,ugm-3,10.76304,R,ugm-3,10.98499,R,ugm-3
07-01-2019,06:00,0.61520,R,ugm-3,13.73961,R,ugm-3,14.68291,R,ugm-3
07-01-2019,07:00,1.37516,R,ugm-3,21.54725,R,ugm-3,23.65579,R,ugm-3
07-01-2019,08:00,2.35224,R,ugm-3,26.68357,R,ugm-3,30.29029,R,ugm-3
07-01-2019,09:00,2.06273,R,ugm-3,25.44166,R,ugm-3,28.60448,R,ugm-3
07-01-2019,10:00,2.64175,R,ugm-3,25.09767,R,ugm-3,29.14829,R,ugm-3
07-01-2019,11:00,3.07601,R,ugm-3,25.19315,R,ugm-3,29.90962,R,ugm-3
07-01-2019,12:00,2.02654,R,ugm-3,17.77503,R,ugm-3,20.88235,R,ugm-3
07-01-2019,13:00,2.02654,R,ugm-3,18.15570,R,ugm-3,21.26302,R,ugm-3
07-01-2019,14:00,1.26659,R,ugm-3,16.54751,R,ugm-3,18.48959,R,ugm-3
07-01-2019,15:00,1.15803,R,ugm-3,16.17016,R,ugm-3,17.94577,R,ugm-3
07-01-2019,16:00,0.97708,R,ugm-3,16.06693,R,ugm-3,17.56511,R,ugm-3
07-01-2019,17:00,0.94090,R,ugm-3,17.31880,R,ugm-3,18.76149,R,ugm-3
07-01-2019,18:00,0.86852,R,ugm-3,16.94035,R,ugm-3,18.27206,R,ugm-3
07-01-2019,19:00,0.68758,R,ugm-3,13.30235,R,ugm-3,14.35662,R,ugm-3
07-01-2019,20:00,0.57901,R,ugm-3,11.67424,R,ugm-3,12.56204,R,ugm-3
07-01-2019,21:00,0.32570,R,ugm-3,9.88741,R,ugm-3,10.38680,R,ugm-3
07-01-2019,22:00,0.32570,R,ugm-3,9.66988,R,ugm-3,10.16927,R,ugm-3
07-01-2019,23:00,0.28951,R,ugm-3,7.82203,R,ugm-3,8.26593,R,ugm-3
07-01-2019,24:00,0.03619,R,ugm-3,4.83881,R,ugm-3,4.89430,R,ugm-3
08-01-2019,01:00,0.00000,R,ugm-3,4.27958,R,ugm-3,4.27958,R,ugm-3
08-01-2019,02:00,,,,,,,,,
08-01-2019,03:00,0.00000,R,ugm-3,3.91691,R,ugm-3,3.91691,R,ugm-3
08-01-2019,04:00,0.00000,R,ugm-3,3.64490,R,ugm-3,3.64490,R,ugm-3
08-01-2019,05:00,0.03621,R,ugm-3,4.13339,R,ugm-3,4.18891,R,ugm-3
08-01-2019,06:00,0.10863,R,ugm-3,5.32799,R,ugm-3,5.49455,R,ugm-3
08-01-2019,07:00,0.28967,R,ugm-3,9.94652,R,ugm-3,10.39068,R,ugm-3
08-01-2019,08:00,0.57934,R,ugm-3,18.26100,R,ugm-3,19.14931,R,ugm-3
08-01-2019,09:00,1.15868,R,ugm-3,20.90879,R,ugm-3,22.68541,R,ugm-3
08-01-2019,10:00,2.38977,R,ugm-3,23.53646,R,ugm-3,27.20073,R,ugm-3
08-01-2019,11:00,2.67945,R,ugm-3,16.45532,R,ugm-3,20.56375,R,ugm-3
08-01-2019,12:00,2.28115,R,ugm-3,12.82272,R,ugm-3,16.32044,R,ugm-3
08-01-2019,13:00,2.13631,R,ugm-3,11.35836,R,ugm-3,14.63399,R,ugm-3
08-01-2019,14:00,1.55698,R,ugm-3,10.34261,R,ugm-3,12.72994,R,ugm-3
08-01-2019,15:00,2.28115,R,ugm-3,13.20353,R,ugm-3,16.70125,R,ugm-3
08-01-2019,16:00,1.05005,R,ugm-3,17.59365,R,ugm-3,19.20371,R,ugm-3
08-01-2019,17:00,1.70181,R,ugm-3,27.36579,R,ugm-3,29.97520,R,ugm-3
08-01-2019,18:00,2.02769,R,ugm-3,40.03127,R,ugm-3,43.14035,R,ugm-3
08-01-2019,19:00,2.06390,R,ugm-3,40.19336,R,ugm-3,43.35796,R,ugm-3
08-01-2019,20:00,1.77423,R,ugm-3,30.73645,R,ugm-3,33.45689,R,ugm-3
08-01-2019,21:00,1.99148,R,ugm-3,33.50422,R,ugm-3,36.55777,R,ugm-3
08-01-2019,22:00,1.30351,R,ugm-3,37.33356,R,ugm-3,39.33225,R,ugm-3
08-01-2019,23:00,1.37593,R,ugm-3,37.60333,R,ugm-3,39.71306,R,ugm-3
08-01-2019,24:00,0.86901,R,ugm-3,29.56756,R,ugm-3,30.90002,R,ugm-3
09-01-2019,01:00,0.86950,R,ugm-3,23.33799,R,ugm-3,24.67120,R,ugm-3
09-01-2019,02:00,,,,,,,,,
09-01-2019,03:00,0.25360,R,ugm-3,12.50911,R,ugm-3,12.89796,R,ugm-3
09-01-2019,04:00,0.18115,R,ugm-3,9.46374,R,ugm-3,9.74150,R,ugm-3
09-01-2019,05:00,0.25360,R,ugm-3,10.33224,R,ugm-3,10.72109,R,ugm-3
09-01-2019,06:00,0.18115,R,ugm-3,10.66102,R,ugm-3,10.93878,R,ugm-3
09-01-2019,07:00,0.65213,R,ugm-3,16.25179,R,ugm-3,17.25170,R,ugm-3
09-01-2019,08:00,0.94196,R,ugm-3,23.42644,R,ugm-3,24.87075,R,ugm-3
09-01-2019,09:00,1.92014,R,ugm-3,26.49800,R,ugm-3,29.44218,R,ugm-3
09-01-2019,10:00,3.07948,R,ugm-3,25.86324,R,ugm-3,30.58504,R,ugm-3
09-01-2019,11:00,2.93456,R,ugm-3,20.09905,R,ugm-3,24.59864,R,ugm-3
09-01-2019,12:00,2.75341,R,ugm-3,16.89381,R,ugm-3,21.11565,R,ugm-3
09-01-2019,13:00,1.77523,R,ugm-3,16.76102,R,ugm-3,19.48300,R,ugm-3
09-01-2019,14:00,1.08687,R,ugm-3,10.57838,R,ugm-3,12.24490,R,ugm-3
09-01-2019,15:00,0.65213,R,ugm-3,11.57152,R,ugm-3,12.57143,R,ugm-3
09-01-2019,16:00,0.76081,R,ugm-3,15.48650,R,ugm-3,16.65306,R,ugm-3
09-01-2019,17:00,0.54344,R,ugm-3,20.55450,R,ugm-3,21.38776,R,ugm-3
09-01-2019,18:00,0.83327,R,ugm-3,29.03526,R,ugm-3,30.31293,R,ugm-3
09-01-2019,19:00,4.78224,R,ugm-3,35.60611,R,ugm-3,42.93878,R,ugm-3
09-01-2019,20:00,5.18076,R,ugm-3,36.62770,R,ugm-3,44.57143,R,ugm-3
09-01-2019,21:00,5.90535,R,ugm-3,36.87724,R,ugm-3,45.93198,R,ugm-3
09-01-2019,22:00,3.69537,R,ugm-3,31.44949,R,ugm-3,37.11565,R,ugm-3
09-01-2019,23:00,1.12310,R,ugm-3,26.08746,R,ugm-3,27.80953,R,ugm-3
09-01-2019,24:00,0.54344,R,ugm-3,23.16674,R,ugm-3,24.00000,R,ugm-3
10-01-2019,01:00,0.48333,R,ugm-3,22.99566,R,ugm-3,23.73675,R,ugm-3
10-01-2019,02:00,,,,,,,,,
10-01-2019,03:00,0.32625,R,ugm-3,16.70347,R,ugm-3,17.20370,R,ugm-3
10-01-2019,04:00,0.68874,R,ugm-3,19.46861,R,ugm-3,20.52467,R,ugm-3
10-01-2019,05:00,0.47124,R,ugm-3,19.58434,R,ugm-3,20.30690,R,ugm-3
10-01-2019,06:00,0.97874,R,ugm-3,30.78345,R,ugm-3,32.28416,R,ugm-3
10-01-2019,07:00,4.16870,R,ugm-3,45.32808,R,ugm-3,51.71999,R,ugm-3
10-01-2019,08:00,15.18855,R,ugm-3,47.26816,R,ugm-3,70.55695,R,ugm-3
10-01-2019,09:00,30.92085,R,ugm-3,49.87671,R,ugm-3,97.28802,R,ugm-3
10-01-2019,10:00,39.76574,R,ugm-3,53.84509,R,ugm-3,114.81837,R,ugm-3
10-01-2019,11:00,38.20701,R,ugm-3,53.51301,R,ugm-3,112.09627,R,ugm-3
10-01-2019,12:00,19.86474,R,ugm-3,50.22433,R,ugm-3,80.68318,R,ugm-3
10-01-2019,13:00,8.22864,R,ugm-3,37.46965,R,ugm-3,50.08673,R,ugm-3
10-01-2019,14:00,7.72115,R,ugm-3,40.53436,R,ugm-3,52.37329,R,ugm-3
10-01-2019,15:00,7.14116,R,ugm-3,44.20022,R,ugm-3,55.14984,R,ugm-3
10-01-2019,16:00,7.53990,R,ugm-3,48.32528,R,ugm-3,59.88630,R,ugm-3
10-01-2019,17:00,9.82362,R,ugm-3,55.05874,R,ugm-3,70.12142,R,ugm-3
10-01-2019,18:00,12.50609,R,ugm-3,57.36985,R,ugm-3,76.54558,R,ugm-3
10-01-2019,19:00,34.03831,R,ugm-3,58.10833,R,ugm-3,110.29968,R,ugm-3
10-01-2019,20:00,33.31332,R,ugm-3,55.02793,R,ugm-3,106.10764,R,ugm-3
10-01-2019,21:00,30.66710,R,ugm-3,51.40906,R,ugm-3,98.43130,R,ugm-3
10-01-2019,22:00,12.79609,R,ugm-3,47.18006,R,ugm-3,66.80045,R,ugm-3
10-01-2019,23:00,4.31370,R,ugm-3,42.11143,R,ugm-3,48.72567,R,ugm-3
10-01-2019,24:00,1.41373,R,ugm-3,30.22535,R,ugm-3,32.39305,R,ugm-3
11-01-2019,01:00,0.77376,R,ugm-3,20.74378,R,ugm-3,21.93020,R,ugm-3
11-01-2019,02:00,,,,,,,,,
11-01-2019,03:00,0.50778,R,ugm-3,19.59036,R,ugm-3,20.36894,R,ugm-3
11-01-2019,04:00,0.76167,R,ugm-3,19.30999,R,ugm-3,20.47787,R,ugm-3
11-01-2019,05:00,0.65286,R,ugm-3,20.02145,R,ugm-3,21.02249,R,ugm-3
11-01-2019,06:00,0.54405,R,ugm-3,20.62399,R,ugm-3,21.45819,R,ugm-3
11-01-2019,07:00,1.16064,R,ugm-3,27.57562,R,ugm-3,29.35524,R,ugm-3
11-01-2019,08:00,9.57527,R,ugm-3,43.81076,R,ugm-3,58.49263,R,ugm-3
11-01-2019,09:00,10.69963,R,ugm-3,49.60257,R,ugm-3,66.00844,R,ugm-3
11-01-2019,10:00,14.07274,R,ugm-3,45.95549,R,ugm-3,67.53339,R,ugm-3
11-01-2019,11:00,10.98979,R,ugm-3,39.08212,R,ugm-3,55.93290,R,ugm-3
11-01-2019,12:00,9.79289,R,ugm-3,33.34708,R,ugm-3,48.36262,R,ugm-3
11-01-2019,13:00,10.04677,R,ugm-3,32.08638,R,ugm-3,47.49122,R,ugm-3
11-01-2019,14:00,10.01051,R,ugm-3,32.95893,R,ugm-3,48.30816,R,ugm-3
11-01-2019,15:00,4.93271,R,ugm-3,26.14885,R,ugm-3,33.71223,R,ugm-3
11-01-2019,16:00,4.35239,R,ugm-3,37.38651,R,ugm-3,44.06009,R,ugm-3
11-01-2019,17:00,7.83431,R,ugm-3,53.34246,R,ugm-3,65.35490,R,ugm-3
11-01-2019,18:00,5.11406,R,ugm-3,48.90838,R,ugm-3,56.74983,R,ugm-3
11-01-2019,19:00,1.52334,R,ugm-3,41.77880,R,ugm-3,44.11455,R,ugm-3
11-01-2019,20:00,1.05183,R,ugm-3,34.44134,R,ugm-3,36.05412,R,ugm-3
11-01-2019,21:00,0.50778,R,ugm-3,26.83386,R,ugm-3,27.61244,R,ugm-3
11-01-2019,22:00,0.43524,R,ugm-3,25.25675,R,ugm-3,25.92411,R,ugm-3
11-01-2019,23:00,0.94302,R,ugm-3,34.77156,R,ugm-3,36.21750,R,ugm-3
11-01-2019,24:00,0.36270,R,ugm-3,23.95196,R,ugm-3,24.50809,R,ugm-3
12-01-2019,01:00,0.14516,R,ugm-3,17.57512,R,ugm-3,17.79769,R,ugm-3
12-01-2019,02:00,,,,,,,,,
12-01-2019,03:00,0.07258,R,ugm-3,12.36526,R,ugm-3,12.47655,R,ugm-3
12-01-2019,04:00,0.07258,R,ugm-3,11.71146,R,ugm-3,11.82275,R,ugm-3
12-01-2019,05:00,0.21774,R,ugm-3,10.78061,R,ugm-3,11.11448,R,ugm-3
12-01-2019,06:00,0.07258,R,ugm-3,9.69560,R,ugm-3,9.80689,R,ugm-3
12-01-2019,07:00,0.25403,R,ugm-3,9.30842,R,ugm-3,9.69793,R,ugm-3
12-01-2019,08:00,0.54436,R,ugm-3,13.22188,R,ugm-3,14.05655,R,ugm-3
12-01-2019,09:00,0.72581,R,ugm-3,16.15814,R,ugm-3,17.27103,R,ugm-3
12-01-2019,10:00,1.05242,R,ugm-3,13.09665,R,ugm-3,14.71034,R,ugm-3
12-01-2019,11:00,1.27016,R,ugm-3,15.75933,R,ugm-3,17.70689,R,ugm-3
12-01-2019,12:00,1.12500,R,ugm-3,14.78329,R,ugm-3,16.50827,R,ugm-3
12-01-2019,13:00,1.19758,R,ugm-3,12.71062,R,ugm-3,14.54689,R,ugm-3
12-01-2019,14:00,0.79839,R,ugm-3,10.43513,R,ugm-3,11.65931,R,ugm-3
12-01-2019,15:00,0.68952,R,ugm-3,10.27516,R,ugm-3,11.33241,R,ugm-3
12-01-2019,16:00,0.43549,R,ugm-3,8.81226,R,ugm-3,9.48000,R,ugm-3
12-01-2019,17:00,0.58065,R,ugm-3,12.51244,R,ugm-3,13.40275,R,ugm-3
12-01-2019,18:00,0.65323,R,ugm-3,14.79839,R,ugm-3,15.79999,R,ugm-3
12-01-2019,19:00,0.50807,R,ugm-3,13.11408,R,ugm-3,13.89310,R,ugm-3
12-01-2019,20:00,0.47178,R,ugm-3,11.91662,R,ugm-3,12.63999,R,ugm-3
12-01-2019,21:00,0.25403,R,ugm-3,8.49118,R,ugm-3,8.88069,R,ugm-3
12-01-2019,22:00,0.07258,R,ugm-3,5.33698,R,ugm-3,5.44827,R,ugm-3
12-01-2019,23:00,0.07258,R,ugm-3,4.62871,R,ugm-3,4.74000,R,ugm-3
12-01-2019,24:00,0.00000,R,ugm-3,3.81379,R,ugm-3,3.81379,R,ugm-3
13-01-2019,01:00,0.14524,R,ugm-3,2.97481,R,ugm-3,3.19751,R,ugm-3
13-01-2019,02:00,,,,,,,,,
13-01-2019,03:00,0.03631,R,ugm-3,2.83299,R,ugm-3,2.88866,R,ugm-3
13-01-2019,04:00,0.07262,R,ugm-3,1.95977,R,ugm-3,2.07112,R,ugm-3
13-01-2019,05:00,0.03631,R,ugm-3,1.96094,R,ugm-3,2.01661,R,ugm-3
13-01-2019,06:00,0.10893,R,ugm-3,2.12210,R,ugm-3,2.28913,R,ugm-3
13-01-2019,07:00,0.14524,R,ugm-3,3.70152,R,ugm-3,3.92422,R,ugm-3
13-01-2019,08:00,0.21787,R,ugm-3,4.46221,R,ugm-3,4.79627,R,ugm-3
13-01-2019,09:00,0.29049,R,ugm-3,4.84139,R,ugm-3,5.28680,R,ugm-3
13-01-2019,10:00,0.58097,R,ugm-3,6.79412,R,ugm-3,7.68493,R,ugm-3
13-01-2019,11:00,0.90777,R,ugm-3,6.40204,R,ugm-3,7.79394,R,ugm-3
13-01-2019,12:00,1.16195,R,ugm-3,6.82986,R,ugm-3,8.61148,R,ugm-3
13-01-2019,13:00,1.19826,R,ugm-3,7.21021,R,ugm-3,9.04751,R,ugm-3
13-01-2019,14:00,1.19826,R,ugm-3,7.26471,R,ugm-3,9.10201,R,ugm-3
13-01-2019,15:00,1.30719,R,ugm-3,9.87734,R,ugm-3,11.88167,R,ugm-3
13-01-2019,16:00,0.90777,R,ugm-3,9.94474,R,ugm-3,11.33663,R,ugm-3
13-01-2019,17:00,0.72622,R,ugm-3,10.33213,R,ugm-3,11.44564,R,ugm-3
13-01-2019,18:00,0.54466,R,ugm-3,10.22898,R,ugm-3,11.06412,R,ugm-3
13-01-2019,19:00,0.39942,R,ugm-3,7.50852,R,ugm-3,8.12096,R,ugm-3
13-01-2019,20:00,0.39942,R,ugm-3,7.01800,R,ugm-3,7.63043,R,ugm-3
13-01-2019,21:00,0.29049,R,ugm-3,3.47882,R,ugm-3,3.92422,R,ugm-3
13-01-2019,22:00,0.25418,R,ugm-3,4.89707,R,ugm-3,5.28680,R,ugm-3
13-01-2019,23:00,0.18155,R,ugm-3,5.06292,R,ugm-3,5.34130,R,ugm-3
13-01-2019,24:00,0.14524,R,ugm-3,3.37450,R,ugm-3,3.59720,R,ugm-3
14-01-2019,01:00,0.14533,R,ugm-3,2.53969,R,ugm-3,2.76252,R,ugm-3
14-01-2019,02:00,,,,,,,,,
14-01-2019,03:00,0.14533,R,ugm-3,3.43024,R,ugm-3,3.65307,R,ugm-3
14-01-2019,04:00,0.18166,R,ugm-3,2.61120,R,ugm-3,2.88974,R,ugm-3
14-01-2019,05:00,0.21799,R,ugm-3,2.82811,R,ugm-3,3.16236,R,ugm-3
14-01-2019,06:00,0.18166,R,ugm-3,4.90119,R,ugm-3,5.17972,R,ugm-3
14-01-2019,07:00,0.47231,R,ugm-3,12.03428,R,ugm-3,12.75847,R,ugm-3
14-01-2019,08:00,0.98094,R,ugm-3,21.88644,R,ugm-3,23.39053,R,ugm-3
14-01-2019,09:00,1.85289,R,ugm-3,25.78371,R,ugm-3,28.62477,R,ugm-3
14-01-2019,10:00,2.90650,R,ugm-3,16.42589,R,ugm-3,20.88245,R,ugm-3
14-01-2019,11:00,1.38059,R,ugm-3,11.24136,R,ugm-3,13.35823,R,ugm-3
14-01-2019,12:00,1.88922,R,ugm-3,15.80475,R,ugm-3,18.70152,R,ugm-3
14-01-2019,13:00,2.07088,R,ugm-3,15.52622,R,ugm-3,18.70152,R,ugm-3
14-01-2019,14:00,1.74390,R,ugm-3,13.90117,R,ugm-3,16.57511,R,ugm-3
14-01-2019,15:00,1.27159,R,ugm-3,15.00702,R,ugm-3,16.95677,R,ugm-3
14-01-2019,16:00,1.19893,R,ugm-3,21.17053,R,ugm-3,23.00886,R,ugm-3
14-01-2019,17:00,0.94461,R,ugm-3,27.12186,R,ugm-3,28.57025,R,ugm-3
14-01-2019,18:00,2.17987,R,ugm-3,43.49316,R,ugm-3,46.83558,R,ugm-3
14-01-2019,19:00,2.90650,R,ugm-3,43.30591,R,ugm-3,47.76248,R,ugm-3
14-01-2019,20:00,2.72484,R,ugm-3,44.02063,R,ugm-3,48.19866,R,ugm-3
14-01-2019,21:00,2.68851,R,ugm-3,48.16560,R,ugm-3,52.28792,R,ugm-3
14-01-2019,22:00,2.43419,R,ugm-3,40.97680,R,ugm-3,44.70917,R,ugm-3
14-01-2019,23:00,1.01727,R,ugm-3,28.86425,R,ugm-3,30.42404,R,ugm-3
14-01-2019,24:00,0.65396,R,ugm-3,24.24160,R,ugm-3,25.24432,R,ugm-3
15-01-2019,01:00,0.38775,R,ugm-3,16.56854,R,ugm-3,17.16308,R,ugm-3
15-01-2019,02:00,,,,,,,,,
15-01-2019,03:00,0.36352,R,ugm-3,14.82394,R,ugm-3,15.38132,R,ugm-3
15-01-2019,04:00,0.43622,R,ugm-3,17.93054,R,ugm-3,18.59940,R,ugm-3
15-01-2019,05:00,0.43622,R,ugm-3,16.18514,R,ugm-3,16.85400,R,ugm-3
15-01-2019,06:00,0.54527,R,ugm-3,17.70878,R,ugm-3,18.54486,R,ugm-3
15-01-2019,07:00,2.18110,R,ugm-3,23.21848,R,ugm-3,26.56278,R,ugm-3
15-01-2019,08:00,3.12624,R,ugm-3,32.35076,R,ugm-3,37.14426,R,ugm-3
15-01-2019,09:00,4.07138,R,ugm-3,37.39226,R,ugm-3,43.63496,R,ugm-3
15-01-2019,10:00,7.19762,R,ugm-3,44.98018,R,ugm-3,56.01637,R,ugm-3
15-01-2019,11:00,5.70720,R,ugm-3,32.21140,R,ugm-3,40.96232,R,ugm-3
15-01-2019,12:00,2.54461,R,ugm-3,20.97024,R,ugm-3,24.87193,R,ugm-3
15-01-2019,13:00,1.89028,R,ugm-3,14.17378,R,ugm-3,17.07218,R,ugm-3
15-01-2019,14:00,1.45406,R,ugm-3,14.02449,R,ugm-3,16.25402,R,ugm-3
15-01-2019,15:00,1.74488,R,ugm-3,16.25122,R,ugm-3,18.92666,R,ugm-3
15-01-2019,16:00,2.83543,R,ugm-3,23.30606,R,ugm-3,27.65365,R,ugm-3
15-01-2019,17:00,2.98083,R,ugm-3,30.39196,R,ugm-3,34.96251,R,ugm-3
15-01-2019,18:00,3.74422,R,ugm-3,38.65752,R,ugm-3,44.39857,R,ugm-3
15-01-2019,19:00,2.43556,R,ugm-3,32.10074,R,ugm-3,35.83521,R,ugm-3
15-01-2019,20:00,1.41771,R,ugm-3,22.80722,R,ugm-3,24.98101,R,ugm-3
15-01-2019,21:00,1.38136,R,ugm-3,19.91760,R,ugm-3,22.03565,R,ugm-3
15-01-2019,22:00,1.27231,R,ugm-3,16.59402,R,ugm-3,18.54486,R,ugm-3
15-01-2019,23:00,0.54527,R,ugm-3,13.34529,R,ugm-3,14.18136,R,ugm-3
15-01-2019,24:00,0.39987,R,ugm-3,15.15001,R,ugm-3,15.76313,R,ugm-3
16-01-2019,01:00,0.29098,R,ugm-3,13.44948,R,ugm-3,13.89564,R,ugm-3
16-01-2019,02:00,,,,,,,,,
16-01-2019,03:00,0.21823,R,ugm-3,5.17635,R,ugm-3,5.51097,R,ugm-3
16-01-2019,04:00,0.25460,R,ugm-3,5.39340,R,ugm-3,5.78379,R,ugm-3
16-01-2019,05:00,0.32735,R,ugm-3,6.48227,R,ugm-3,6.98419,R,ugm-3